This is the latest recevied weather packets stored in our database for station/object VA3BOO. If no packets are shown the sender has not sent any weather packets the latest 10 day(s).
| Time | Temp. | Humidity | Pressure | Rain* | Wind** | Luminosity | Snow |
|---|---|---|---|---|---|---|---|
| 1777843505 | 10.56° C | 49% | 1008 hPa | 0 mm | - | 374 W/m² | - |
| 1777843205 | 10.56° C | 52% | 1008.2 hPa | 0 mm | - | 139 W/m² | - |
| 1777842905 | 11.11° C | 53% | 1008.3 hPa | 0 mm | - | 146 W/m² | - |
| 1777842605 | 11.11° C | 55% | 1008 hPa | 0 mm | - | 395 W/m² | - |
| 1777842305 | 10.56° C | 56% | 1008 hPa | 0 mm | - | 406 W/m² | - |
| 1777842005 | 11.11° C | 55% | 1008.4 hPa | 0 mm | - | 427 W/m² | - |
| 1777841705 | 11.11° C | 54% | 1008.4 hPa | 0 mm | - | 400 W/m² | - |
| 1777841405 | 11.11° C | 55% | 1008.5 hPa | 0 mm | - | 447 W/m² | - |
| 1777841105 | 11.11° C | 53% | 1008.6 hPa | 0 mm | - | 473 W/m² | - |
| 1777840805 | 11.11° C | 54% | 1008.4 hPa | 0 mm | - | 487 W/m² | - |
| 1777840505 | 10.56° C | 58% | 1008.7 hPa | 0 mm | - | 494 W/m² | - |
| 1777840205 | 11.11° C | 54% | 1008.9 hPa | 0 mm | - | 456 W/m² | - |
| 1777839905 | 11.11° C | 56% | 1009 hPa | 0 mm | - | 544 W/m² | - |
| 1777839605 | 11.11° C | 55% | 1008.9 hPa | 0 mm | - | 552 W/m² | - |
| 1777839305 | 11.11° C | 53% | 1008.7 hPa | 0 mm | - | 544 W/m² | - |
| 1777839005 | 11.11° C | 54% | 1008.8 hPa | 0 mm | - | 577 W/m² | - |
| 1777838705 | 10.56° C | 55% | 1009 hPa | 0 mm | - | 597 W/m² | - |
| 1777838405 | 11.67° C | 51% | 1008.8 hPa | 0 mm | - | 354 W/m² | - |
| 1777838105 | 11.67° C | 49% | 1009 hPa | 0 mm | - | 578 W/m² | - |
| 1777837805 | 11.11° C | 49% | 1009.1 hPa | 0 mm | - | 565 W/m² | - |
| 1777837505 | 11.11° C | 49% | 1009.2 hPa | 0 mm | - | 537 W/m² | - |
| 1777837205 | 11.11° C | 47% | 1009.4 hPa | 0 mm | - | 499 W/m² | - |
| 1777836905 | 11.11° C | 47% | 1009.4 hPa | 0 mm | - | 705 W/m² | - |
| 1777836605 | 11.11° C | 46% | 1009.4 hPa | 0 mm | - | 661 W/m² | - |
| 1777836305 | 11.11° C | 45% | 1009.4 hPa | 0 mm | - | 493 W/m² | - |
* Rain latest hour (hover to see other rain measurements)
** Current wind speed in m/s (hover to see current wind gust speed)